ASA62 PASI-PAKT

Flight info

Callsign ASA62
Flight time 0h 37m
Altitude 17000
Route TOKEE1 TOKEE V311 UDENE
Aircraft B737/M-SDE2E3FGHIRWXY/LB1

Departure

Time 2026-04-22 17:29
Airport Sitka Rocky Gutierrez Airport (PASI)

Arrival

Time 2026-04-22 18:07
Airport Ketchikan International Airport (PAKT)
Time Latitude Longitude Altitude Speed Heading
2026-04-22 17:09 57.05235 -135.36602 34 ft 0 kts 76°
2026-04-22 17:21 57.05230 -135.36638 34 ft 2 kts 76°
2026-04-22 17:22 57.05223 -135.36692 34 ft 2 kts 76°
2026-04-22 17:22 57.05219 -135.36719 34 ft 2 kts 76°
2026-04-22 17:22 57.05213 -135.36773 34 ft 2 kts 102°
2026-04-22 17:23 57.05221 -135.36797 34 ft 2 kts 135°
2026-04-22 17:23 57.05225 -135.36806 30 ft 0 kts 135°
2026-04-22 17:24 57.05223 -135.36801 34 ft 2 kts 135°
2026-04-22 17:24 57.05199 -135.36759 33 ft 8 kts 136°
2026-04-22 17:24 57.05144 -135.36659 33 ft 13 kts 136°
2026-04-22 17:25 57.05077 -135.36539 33 ft 13 kts 135°
2026-04-22 17:25 57.05013 -135.36423 34 ft 13 kts 135°
2026-04-22 17:25 57.04945 -135.36324 34 ft 12 kts 158°
2026-04-22 17:25 57.04860 -135.36312 34 ft 12 kts 180°
2026-04-22 17:26 57.04783 -135.36271 36 ft 12 kts 136°
2026-04-22 17:26 57.04722 -135.36163 36 ft 13 kts 136°
2026-04-22 17:26 57.04648 -135.36033 35 ft 16 kts 136°
2026-04-22 17:26 57.04552 -135.35860 34 ft 23 kts 135°
2026-04-22 17:27 57.04476 -135.35724 34 ft 23 kts 135°
2026-04-22 17:27 57.04328 -135.35453 34 ft 22 kts 135°
2026-04-22 17:27 57.04221 -135.35257 36 ft 21 kts 135°
2026-04-22 17:27 57.04128 -135.35087 34 ft 16 kts 135°
2026-04-22 17:28 57.04062 -135.34958 34 ft 10 kts 129°
2026-04-22 17:28 57.04038 -135.34929 34 ft 2 kts 197°
2026-04-22 17:28 57.04042 -135.34951 35 ft 2 kts 299°
2026-04-22 17:28 57.04049 -135.34967 34 ft 2 kts 311°
2026-04-22 17:29 57.04070 -135.35005 36 ft 19 kts 315°
2026-04-22 17:29 57.04372 -135.35550 34 ft 102 kts 316°
2026-04-22 17:29 57.05047 -135.36767 86 ft 163 kts 316°
2026-04-22 17:29 57.05890 -135.38250 850 ft 170 kts 315°
2026-04-22 17:30 57.06716 -135.39835 1715 ft 174 kts 307°
2026-04-22 17:30 57.07403 -135.41793 2502 ft 193 kts 296°
2026-04-22 17:30 57.07888 -135.44252 3043 ft 217 kts 281°
2026-04-22 17:30 57.08031 -135.47131 3595 ft 238 kts 268°
2026-04-22 17:31 57.07732 -135.50163 4477 ft 244 kts 253°
2026-04-22 17:31 57.06969 -135.53012 5438 ft 253 kts 238°
2026-04-22 17:31 57.05730 -135.55414 6354 ft 267 kts 223°
2026-04-22 17:31 57.04059 -135.57083 7367 ft 282 kts 206°
2026-04-22 17:32 57.02080 -135.57734 8353 ft 298 kts 185°
2026-04-22 17:32 56.99990 -135.57094 9311 ft 313 kts 163°
2026-04-22 17:32 56.98061 -135.55116 10261 ft 323 kts 146°
2026-04-22 17:32 56.96825 -135.53501 10619 ft 337 kts 146°
2026-04-22 17:33 56.94815 -135.50934 10842 ft 366 kts 147°
2026-04-22 17:33 56.92641 -135.48288 11380 ft 381 kts 148°
2026-04-22 17:33 56.90390 -135.45659 12234 ft 386 kts 149°
2026-04-22 17:33 56.88103 -135.43043 13145 ft 390 kts 150°
2026-04-22 17:34 56.85777 -135.40436 14038 ft 395 kts 152°
2026-04-22 17:34 56.83341 -135.38051 14860 ft 399 kts 155°
2026-04-22 17:34 56.80846 -135.35737 15728 ft 403 kts 155°
2026-04-22 17:34 56.78331 -135.33390 16530 ft 410 kts 155°
2026-04-22 17:35 56.75858 -135.30724 16882 ft 417 kts 141°
2026-04-22 17:35 56.73885 -135.26803 17021 ft 428 kts 127°
2026-04-22 17:35 56.72043 -135.22379 17018 ft 446 kts 126°
2026-04-22 17:35 56.70183 -135.17831 17012 ft 449 kts 126°
2026-04-22 17:36 56.68307 -135.13274 17000 ft 450 kts 126°
2026-04-22 17:36 56.66418 -135.08747 17000 ft 449 kts 126°
2026-04-22 17:36 56.64515 -135.04240 17005 ft 449 kts 127°
2026-04-22 17:36 56.62604 -134.99753 16996 ft 449 kts 127°
2026-04-22 17:37 56.60718 -134.95333 16999 ft 449 kts 127°
2026-04-22 17:37 56.58801 -134.90849 16972 ft 450 kts 127°
2026-04-22 17:37 56.56887 -134.86363 17005 ft 449 kts 126°
2026-04-22 17:37 56.54963 -134.81886 16965 ft 451 kts 127°
2026-04-22 17:38 56.53028 -134.77414 16975 ft 450 kts 127°
2026-04-22 17:38 56.51101 -134.72943 16988 ft 450 kts 126°
2026-04-22 17:38 56.49185 -134.68457 16988 ft 450 kts 126°
2026-04-22 17:38 56.47269 -134.63983 16977 ft 450 kts 127°
2026-04-22 17:39 56.45334 -134.59544 17005 ft 450 kts 127°
2026-04-22 17:39 56.43391 -134.55094 17004 ft 450 kts 127°
2026-04-22 17:39 56.39517 -134.46208 17008 ft 451 kts 127°
2026-04-22 17:40 56.37575 -134.41758 16997 ft 451 kts 127°
2026-04-22 17:40 56.35637 -134.37319 16999 ft 451 kts 127°
2026-04-22 17:40 56.33695 -134.32881 17001 ft 450 kts 127°
2026-04-22 17:40 56.31752 -134.28450 16999 ft 450 kts 127°
2026-04-22 17:41 56.29809 -134.24026 16998 ft 450 kts 127°
2026-04-22 17:41 56.27889 -134.19664 17005 ft 450 kts 127°
2026-04-22 17:41 56.25944 -134.15251 16981 ft 451 kts 127°
2026-04-22 17:41 56.23999 -134.10830 16986 ft 450 kts 127°
2026-04-22 17:42 56.22050 -134.06423 16992 ft 450 kts 127°
2026-04-22 17:42 56.20110 -134.02055 16983 ft 450 kts 127°
2026-04-22 17:42 56.18157 -133.97656 16997 ft 450 kts 127°
2026-04-22 17:42 56.16200 -133.93266 16977 ft 450 kts 127°
2026-04-22 17:43 56.14243 -133.88882 16969 ft 450 kts 127°
2026-04-22 17:43 56.12341 -133.84627 16972 ft 450 kts 127°
2026-04-22 17:43 56.10335 -133.80144 16975 ft 450 kts 127°
2026-04-22 17:43 56.08376 -133.75775 16976 ft 450 kts 127°
2026-04-22 17:44 56.06416 -133.71407 16979 ft 450 kts 127°
2026-04-22 17:44 56.04453 -133.67041 16972 ft 450 kts 127°
2026-04-22 17:44 56.02490 -133.62683 16977 ft 451 kts 127°
2026-04-22 17:44 56.00520 -133.58320 16975 ft 451 kts 127°
2026-04-22 17:45 55.98573 -133.54012 16971 ft 451 kts 127°
2026-04-22 17:45 55.96600 -133.49657 16984 ft 451 kts 127°
2026-04-22 17:45 55.94635 -133.45325 16972 ft 445 kts 127°
2026-04-22 17:45 55.92699 -133.41067 16445 ft 441 kts 127°
2026-04-22 17:46 55.90774 -133.36843 15863 ft 435 kts 128°
2026-04-22 17:46 55.88883 -133.32704 15222 ft 428 kts 128°
2026-04-22 17:46 55.87012 -133.28618 14571 ft 423 kts 127°
2026-04-22 17:46 55.85164 -133.24584 13907 ft 418 kts 127°
2026-04-22 17:47 55.83334 -133.20590 13182 ft 414 kts 127°
2026-04-22 17:47 55.81518 -133.16638 12506 ft 410 kts 127°
2026-04-22 17:47 55.79721 -133.12737 11859 ft 405 kts 127°
2026-04-22 17:47 55.77944 -133.08883 11217 ft 401 kts 127°
2026-04-22 17:48 55.76180 -133.05061 10645 ft 396 kts 128°
2026-04-22 17:48 55.74472 -133.01368 10499 ft 378 kts 128°
2026-04-22 17:48 55.72836 -132.97830 10325 ft 363 kts 128°
2026-04-22 17:48 55.71252 -132.94439 10163 ft 350 kts 128°
2026-04-22 17:49 55.69753 -132.91210 10031 ft 337 kts 127°
2026-04-22 17:49 55.68365 -132.87974 9936 ft 324 kts 121°
2026-04-22 17:49 55.67138 -132.84601 9671 ft 326 kts 118°
2026-04-22 17:49 55.65964 -132.81178 9448 ft 324 kts 117°
2026-04-22 17:50 55.64804 -132.77779 9263 ft 320 kts 117°
2026-04-22 17:50 55.63692 -132.74406 9064 ft 316 kts 116°
2026-04-22 17:50 55.62554 -132.71066 8824 ft 316 kts 118°
2026-04-22 17:50 55.61388 -132.67778 8667 ft 315 kts 119°
2026-04-22 17:51 55.60220 -132.64508 8443 ft 313 kts 118°
2026-04-22 17:51 55.59063 -132.61261 8264 ft 312 kts 118°
2026-04-22 17:51 55.57912 -132.58020 8056 ft 311 kts 119°
2026-04-22 17:51 55.56765 -132.54799 7860 ft 309 kts 118°
2026-04-22 17:52 55.55622 -132.51595 7680 ft 307 kts 119°
2026-04-22 17:52 55.54482 -132.48405 7482 ft 306 kts 119°
2026-04-22 17:52 55.53348 -132.45229 7299 ft 305 kts 119°
2026-04-22 17:52 55.52218 -132.42068 7120 ft 304 kts 118°
2026-04-22 17:53 55.51107 -132.38962 6931 ft 302 kts 118°
2026-04-22 17:53 55.49986 -132.35833 6730 ft 300 kts 118°
2026-04-22 17:53 55.48872 -132.32729 6529 ft 298 kts 118°
2026-04-22 17:53 55.47769 -132.29655 6332 ft 295 kts 118°
2026-04-22 17:54 55.46673 -132.26608 6145 ft 292 kts 118°
2026-04-22 17:54 55.45589 -132.23597 5957 ft 289 kts 118°
2026-04-22 17:54 55.44516 -132.20618 5783 ft 287 kts 119°
2026-04-22 17:54 55.43453 -132.17668 5606 ft 284 kts 119°
2026-04-22 17:55 55.42752 -132.15725 5492 ft 283 kts 119°
2026-04-22 17:55 55.41345 -132.11838 5259 ft 281 kts 119°
2026-04-22 17:55 55.40296 -132.08945 5108 ft 280 kts 120°
2026-04-22 17:55 55.38982 -132.06426 4997 ft 284 kts 145°
2026-04-22 17:56 55.37273 -132.04622 4824 ft 289 kts 149°
2026-04-22 17:56 55.35524 -132.02888 4680 ft 287 kts 150°
2026-04-22 17:56 55.33787 -132.01180 4534 ft 285 kts 150°
2026-04-22 17:56 55.32066 -131.99482 4404 ft 282 kts 149°
2026-04-22 17:57 55.30381 -131.97811 4275 ft 281 kts 149°
2026-04-22 17:57 55.28688 -131.96125 4147 ft 279 kts 150°
2026-04-22 17:57 55.27000 -131.94441 4027 ft 278 kts 149°
2026-04-22 17:57 55.25327 -131.92770 3897 ft 276 kts 150°
2026-04-22 17:58 55.23659 -131.91105 3768 ft 275 kts 149°
2026-04-22 17:58 55.22001 -131.89448 3651 ft 274 kts 149°
2026-04-22 17:58 55.20348 -131.87797 3518 ft 273 kts 149°
2026-04-22 17:58 55.18699 -131.86152 3395 ft 272 kts 149°
2026-04-22 17:59 55.17051 -131.84508 3271 ft 271 kts 150°
2026-04-22 17:59 55.15441 -131.82907 3122 ft 261 kts 150°
2026-04-22 17:59 55.13896 -131.81371 3018 ft 250 kts 150°
2026-04-22 17:59 55.12458 -131.79838 2896 ft 236 kts 142°
2026-04-22 18:00 55.11684 -131.78535 2791 ft 230 kts 126°
2026-04-22 18:00 55.10777 -131.75330 2697 ft 218 kts 102°
2026-04-22 18:00 55.10611 -131.72733 2700 ft 216 kts 83°
2026-04-22 18:00 55.10891 -131.70167 2677 ft 216 kts 66°
2026-04-22 18:01 55.11583 -131.67870 2635 ft 212 kts 49°
2026-04-22 18:01 55.12599 -131.66074 2578 ft 206 kts 33°
2026-04-22 18:01 55.13837 -131.64879 2523 ft 202 kts 17°
2026-04-22 18:01 55.15185 -131.64284 2454 ft 200 kts
2026-04-22 18:02 55.16559 -131.63911 2367 ft 200 kts
2026-04-22 18:02 55.17930 -131.63531 2281 ft 199 kts
2026-04-22 18:02 55.19291 -131.63153 2198 ft 195 kts
2026-04-22 18:02 55.20604 -131.62786 2103 ft 186 kts
2026-04-22 18:03 55.21853 -131.62431 2054 ft 180 kts
2026-04-22 18:03 55.23062 -131.62091 1961 ft 174 kts
2026-04-22 18:03 55.24262 -131.61749 1897 ft 176 kts
2026-04-22 18:03 55.25479 -131.61402 1821 ft 176 kts
2026-04-22 18:04 55.26648 -131.61069 1733 ft 164 kts
2026-04-22 18:04 55.27706 -131.60786 1616 ft 144 kts
2026-04-22 18:04 55.28619 -131.60847 1556 ft 123 kts 346°
2026-04-22 18:04 55.29444 -131.61333 1450 ft 125 kts 332°
2026-04-22 18:05 55.30143 -131.62133 1293 ft 120 kts 322°
2026-04-22 18:05 55.30771 -131.63151 1130 ft 127 kts 317°
2026-04-22 18:05 55.31396 -131.64277 986 ft 127 kts 317°
2026-04-22 18:05 55.32022 -131.65329 829 ft 124 kts 322°
2026-04-22 18:06 55.32626 -131.66374 646 ft 120 kts 318°
2026-04-22 18:06 55.33224 -131.67382 510 ft 120 kts 318°
2026-04-22 18:06 55.33818 -131.68396 384 ft 119 kts 317°
2026-04-22 18:06 55.34419 -131.69428 202 ft 120 kts 316°
2026-04-22 18:07 55.34802 -131.70083 104 ft 112 kts 317°
2026-04-22 18:07 55.35404 -131.71115 100 ft 70 kts 316°
2026-04-22 18:07 55.35692 -131.71608 98 ft 46 kts 315°
2026-04-22 18:07 55.35890 -131.71948 99 ft 35 kts 316°
2026-04-22 18:08 55.36052 -131.72225 97 ft 30 kts 315°
2026-04-22 18:08 55.36136 -131.72333 98 ft 10 kts
2026-04-22 18:08 55.36184 -131.72250 100 ft 10 kts 76°
2026-04-22 18:08 55.36155 -131.72135 96 ft 12 kts 132°
2026-04-22 18:09 55.36085 -131.72005 88 ft 17 kts 133°
2026-04-22 18:09 55.35994 -131.71836 71 ft 21 kts 133°
2026-04-22 18:09 55.35889 -131.71640 64 ft 23 kts 133°
2026-04-22 18:09 55.35792 -131.71467 54 ft 20 kts 135°
2026-04-22 18:10 55.35687 -131.71287 44 ft 21 kts 135°
2026-04-22 18:10 55.35621 -131.71172 39 ft 7 kts 135°
2026-04-22 18:10 55.35619 -131.71108 41 ft 6 kts 55°
2026-04-22 18:10 55.35645 -131.71059 41 ft 5 kts 46°
2026-04-22 18:11 55.35657 -131.71038 40 ft 1 kts 45°
2026-04-22 18:11 55.35662 -131.71030 41 ft 0 kts 45°